sat.trackr.live / text

‹ back to catalog

KUIPER-00030

NORAD 63743 · 2025-088V

PAYLOAD ACTIVE UNKNOWN

§ Identity

Operator
Country
US
Launch date
2025-04-28
Launch site
AFETR
Launch vehicle
Mass (kg)
RCS (m²)

External: N2YO · Heavens-Above · Gunter

§ Orbital elements

Epoch: 2026-09-21T19:38:30.075360Z

Period
97.30 min
Inclination
51.9022°
Eccentricity
0.0000098
Mean motion
14.79930682 rev/d
Perigee alt
629.5 km
Apogee alt
629.6 km
Semi-major
7,007.7 km
B*
-1.0902e-5
RAAN
323.2838°
Arg perigee
169.4154°
Mean anomaly
190.6810°
Rev number
7,667

§ Raw data

KUIPER-000301 63743U 25088V   26264.81840365 -.00000304  00000+0 -10902-4 0  99952 63743  51.9022 323.2838 0000098 169.4154 190.6810 14.79930682 76670

JSON: /api/v1/satellites/63743 · /tle

For live sub-satellite position, see the globe view (requires WebGL).

§ Visibility from observer

Set your observer location to see the next 7 days of passes ≥ 10°. The values pass through the URL so the page stays shareable.

No JS? Fill the form by hand. The geolocation button needs JavaScript.